Location: Newark
(41.6500°N, 71.4833°W)
Time: 15:38:32
(UTC+00:00)

A-11 Canister half - Pass Details

Date: 23 January 2020
Orbit: 1517 x 1683 km, 47.2° (Epoch: 23 February)

Event Time Altitude Azimuth Distance (km) Brightness Sun altitude
Rises 13:45:14 0° 283° (WNW) 4,680 11.0 14.4°
Reaches altitude 10° 13:51:56 10° 250° (WSW) 3,722 10.8 15.3°
Maximum altitude 13:53:42 11° 238° (WSW) 3,680 10.9 15.5°
Drops below altitude 10° 13:55:28 10° 227° (SW) 3,740 11.1 15.8°
Sets 14:02:22 0° 193° (SSW) 4,765 12.1 16.7°
